Regional Weather Roundup
Issued by NWS

Home | Current Version | Previous Version | Text Only | Print | Product List | Glossary On
Versions: 1 2 3 4 5 6 7 8 9 10 11 12 13 14 15 16 17 18 19 20 21 22 23 24 25 26 27 28 29 30 31 32 33 34 35 36 37 38 39 40 41 42 43 44 45 46 47 48 49 50
000
ASCA42 TJSJ 231910
RWRPR
PUERTO RICO/U.S. VIRGIN ISLANDS HOURLY WEATHER ROUNDUP
NATIONAL WEATHER SERVICE SAN JUAN PR
300 PM AST FRI FEB 23 2018

PRZ001>002-007>008-010-232000-
PUERTO RICO

CITY           SKY/WX    TMP DP  RH WIND       PRES   REMARKS
SAN JUAN LMM   MOSUNNY   81  66  61 E20       30.09F
AGUADILLA      MOSUNNY   75  70  83 E13       30.11F
$$

VIZ001>002-232000-
U.S. VIRGIN ISLANDS

CITY           SKY/WX    TMP DP  RH WIND       PRES   REMARKS
CHARLOTTE AMA  PTSUNNY   79  66  65 E15G23    30.07F
CHRISTIANSTED  MOSUNNY   82  66  57 NE23G29   30.06F
$$

HOURLY WEATHER ROUNDUP FOR THE NEWS MEDIA

CITY           SKY/WX    TMP DP  RH WIND       PRES   REMARKS
ORLANDO        PTSUNNY   83  63  50 E10G18    30.30F
NEW YORK       LGT RAIN  40  38  93 E10       30.48F FOG     WCI  33
NEWARK         DRIZZLE   40  37  89 E7        30.48F FOG
CHICAGO        CLOUDY    40  35  83 W16G24    30.17R WCI  31
HARTFORD       CLOUDY    40  32  73 SE13      30.52F WCI  32
DALLAS         CLOUDY    48  46  93 NE6       30.15F FOG
PHILADELPHIA   DRIZZLE   43  41  93 E7        30.45F FOG
LOS ANGELES    MOSUNNY   56  22  26 NW12G23   30.22F
WASHINGTON DC  CLOUDY    44  42  93 S6        30.42S FOG


USA.gov is the U.S. government's official web portal to all federal, state and local government web resources and services.